Location: Le Domaine
(47.0333°N, 76.5361°W)
Time: 13:24:09
(UTC-05:00)

S-56A Canister/Altair - Pass Details

Date: 27 November 2019
Orbit: 633 x 2499 km, 38.9° (Epoch: 10 December)

Event Time Altitude Azimuth Distance (km) Brightness Sun altitude
Rises 15:55:31 0° 251° (WSW) 5,920 13.9 2.8°
Reaches altitude 10° 15:59:49 10° 248° (WSW) 4,720 13.5 2.2°
Maximum altitude 16:11:51 53° 177° (S) 1,987 9.9 0.5°
Drops below altitude 10° 16:19:59 10° 103° (ESE) 3,262 10.3 -0.7°
Sets 16:22:26 0° 98° (E) 4,013 10.7 -1.0°
